sat.trackr.live / text

‹ back to catalog

ONEWEB-0323

NORAD 49106 · 2021-075AH

PAYLOAD ACTIVE UNKNOWN

§ Identity

Operator
Country
UK
Launch date
2021-08-21
Launch site
TYMSC
Launch vehicle
Mass (kg)
RCS (m²)

Purposes: comms

External: N2YO · Heavens-Above · Gunter

§ Orbital elements

Epoch: 2026-09-19T22:56:44.223360Z

Period
109.72 min
Inclination
87.8976°
Eccentricity
0.0002333
Mean motion
13.12460611 rev/d
Perigee alt
1,211.9 km
Apogee alt
1,215.4 km
Semi-major
7,591.8 km
B*
-9.3962e-3
RAAN
331.8385°
Arg perigee
117.1000°
Mean anomaly
243.0366°
Rev number
24,698

§ Raw data

ONEWEB-03231 49106U 21075AH  26262.95606740 -.00003367  00000+0 -93962-2 0  99912 49106  87.8976 331.8385 0002333 117.1000 243.0366 13.12460611246987

JSON: /api/v1/satellites/49106 · /tle

For live sub-satellite position, see the globe view (requires WebGL).

§ Visibility from observer

Set your observer location to see the next 7 days of passes ≥ 10°. The values pass through the URL so the page stays shareable.

No JS? Fill the form by hand. The geolocation button needs JavaScript.